When you browse on this site, cookies collect data to enhance your experience and personalize the content and advertising you see.
Visit our Privacy Policy to learn more. By continuing to use the site, you agree to this use of cookies and data.
  • In Portugal
  • List of Countries
  • For 7 days
  • Water Temperature
  • Satellite Maps
  • Weather Map
  • Weather Widgets
  • user-avatar
    Login

    Hourly Weather Bruges

    Today, 18 December, Tuesday

    Time Temperature Precipitation Wind Pressure Humidity
    00:00 +2°C° 0 mm 6 mps 766 mmHg 94%
    01:00 +2°C° 0 mm 6 mps 766 mmHg 94%
    02:00 +3°C° 0 mm 6 mps 765 mmHg 94%
    03:00 +3°C° 0 mm 6 mps 765 mmHg 94%
    04:00 +3°C° 0 mm 7 mps 765 mmHg 95%
    05:00 +3°C° 0 mm 7 mps 764 mmHg 95%
    06:00 +4°C° 0 mm 7 mps 764 mmHg 95%
    07:00 +4°C° 0 mm 7 mps 764 mmHg 94%
    08:00 +4°C° 0 mm 8 mps 763 mmHg 92%
    09:00 +4°C° 0 mm 8 mps 763 mmHg 90%
    10:00 +5°C° 0 mm 9 mps 762 mmHg 85%
    11:00 +5°C° 0 mm 9 mps 762 mmHg 80%
    12:00 +6°C° 0 mm 9 mps 761 mmHg 75%
    13:00 +6°C° 0 mm 9 mps 760 mmHg 73%
    14:00 +6°C° 0 mm 9 mps 760 mmHg 70%
    15:00 +6°C° 0 mm 9 mps 759 mmHg 68%
    16:00 +5°C° 0 mm 9 mps 758 mmHg 67%
    17:00 +5°C° 0 mm 9 mps 758 mmHg 66%
    18:00 +5°C° 0 mm 10 mps 757 mmHg 66%
    19:00 +5°C° 0 mm 10 mps 756 mmHg 66%
    20:00 +5°C° 0 mm 9 mps 756 mmHg 66%
    21:00 +5°C° 0 mm 9 mps 755 mmHg 66%
    22:00 +5°C° 0.7 mm 9 mps 755 mmHg 71%
    23:00 +5°C° 0.7 mm 9 mps 755 mmHg 77%

    Tomorrow, 19 December, Wednesday

    Time Temperature Precipitation Wind Pressure Humidity
    00:00 +5°C° 0.7 mm 9 mps 755 mmHg 82%
    01:00 +5°C° 0.3 mm 8 mps 755 mmHg 85%
    02:00 +5°C° 0.3 mm 8 mps 755 mmHg 87%
    03:00 +6°C° 0.3 mm 7 mps 755 mmHg 90%
    04:00 +5°C° 0 mm 7 mps 755 mmHg 91%
    05:00 +5°C° 0 mm 7 mps 756 mmHg 91%
    06:00 +5°C° 0 mm 7 mps 756 mmHg 92%
    07:00 +5°C° 0 mm 7 mps 756 mmHg 92%
    08:00 +5°C° 0 mm 7 mps 756 mmHg 91%
    09:00 +5°C° 0 mm 7 mps 756 mmHg 91%
    10:00 +6°C° 0 mm 7 mps 756 mmHg 88%
    11:00 +6°C° 0 mm 7 mps 756 mmHg 85%
    12:00 +7°C° 0 mm 8 mps 756 mmHg 82%
    13:00 +8°C° 0.1 mm 7 mps 756 mmHg 82%
    14:00 +8°C° 0.1 mm 7 mps 756 mmHg 82%
    15:00 +6°C° 0.1 mm 7 mps 756 mmHg 82%
    16:00 +6°C° 0 mm 7 mps 756 mmHg 83%
    17:00 +6°C° 0 mm 7 mps 756 mmHg 84%
    18:00 +5°C° 0 mm 6 mps 756 mmHg 85%
    19:00 +5°C° 0.1 mm 7 mps 756 mmHg 85%
    20:00 +5°C° 0.1 mm 7 mps 756 mmHg 86%
    21:00 +5°C° 0.1 mm 7 mps 756 mmHg 86%
    22:00 +5°C° 0.1 mm 7 mps 756 mmHg 87%
    23:00 +4°C° 0.1 mm 8 mps 756 mmHg 88%

    Day after tomorrow, 20 December, Thursday

    Time Temperature Precipitation Wind Pressure Humidity
    00:00 +4°C° 0.1 mm 8 mps 756 mmHg 88%
    01:00 +4°C° 0.3 mm 8 mps 756 mmHg 88%
    02:00 +4°C° 0.3 mm 8 mps 756 mmHg 87%
    03:00 +4°C° 0.3 mm 8 mps 756 mmHg 87%
    04:00 +5°C° 0.2 mm 8 mps 756 mmHg 86%
    05:00 +5°C° 0.2 mm 8 mps 756 mmHg 86%
    06:00 +5°C° 0.2 mm 8 mps 756 mmHg 85%
    07:00 +5°C° 0.1 mm 8 mps 757 mmHg 85%
    08:00 +5°C° 0.1 mm 8 mps 757 mmHg 84%
    09:00 +5°C° 0.1 mm 8 mps 757 mmHg 84%
    10:00 +6°C° 0.2 mm 8 mps 758 mmHg 81%
    11:00 +7°C° 0.2 mm 8 mps 758 mmHg 78%
    12:00 +9°C° 0.2 mm 8 mps 758 mmHg 75%
    13:00 +7°C° 0.4 mm 8 mps 758 mmHg 76%
    14:00 +7°C° 0.4 mm 8 mps 758 mmHg 77%
    15:00 +7°C° 0.4 mm 8 mps 758 mmHg 79%
    16:00 +7°C° 0.4 mm 8 mps 759 mmHg 80%
    17:00 +6°C° 0.4 mm 8 mps 759 mmHg 80%
    18:00 +6°C° 0.4 mm 8 mps 759 mmHg 81%
    19:00 +6°C° 0.1 mm 8 mps 759 mmHg 81%
    20:00 +6°C° 0.1 mm 8 mps 759 mmHg 82%
    21:00 +6°C° 0.1 mm 8 mps 759 mmHg 82%
    22:00 +6°C° 0.1 mm 8 mps 759 mmHg 82%
    23:00 +6°C° 0.1 mm 8 mps 758 mmHg 83%

    21 December, Friday

    Time Temperature Precipitation Wind Pressure Humidity
    00:00 +6°C° 0.1 mm 9 mps 758 mmHg 84%
    01:00 +7°C° 1.4 mm 9 mps 756 mmHg 85%
    02:00 +7°C° 1.4 mm 9 mps 755 mmHg 87%
    03:00 +8°C° 1.4 mm 10 mps 754 mmHg 89%
    04:00 +9°C° 1.9 mm 11 mps 753 mmHg 88%
    05:00 +9°C° 1.9 mm 11 mps 752 mmHg 87%
    06:00 +10°C° 1.9 mm 12 mps 751 mmHg 86%
    07:00 +10°C° 1.9 mm 12 mps 751 mmHg 87%
    08:00 +12°C° 1.9 mm 11 mps 751 mmHg 87%
    09:00 +12°C° 1.9 mm 11 mps 750 mmHg 87%
    10:00 +12°C° 0.3 mm 11 mps 751 mmHg 86%
    11:00 +12°C° 0.3 mm 12 mps 751 mmHg 84%
    12:00 +12°C° 0.3 mm 12 mps 752 mmHg 83%
    13:00 +11°C° 0 mm 11 mps 752 mmHg 79%
    14:00 +9°C° 0 mm 11 mps 753 mmHg 75%
    15:00 +9°C° 0 mm 10 mps 754 mmHg 70%
    16:00 +8°C° 0 mm 10 mps 754 mmHg 70%
    17:00 +8°C° 0 mm 10 mps 755 mmHg 70%
    18:00 +8°C° 0 mm 10 mps 756 mmHg 69%
    19:00 +8°C° 0 mm 10 mps 756 mmHg 72%
    20:00 +8°C° 0 mm 9 mps 757 mmHg 76%
    21:00 +7°C° 0 mm 9 mps 757 mmHg 79%
    22:00 +7°C° 0 mm 9 mps 757 mmHg 80%
    23:00 +7°C° 0 mm 9 mps 757 mmHg 82%

    22 December, Saturday

    Time Temperature Precipitation Wind Pressure Humidity
    00:00 +7°C° 0 mm 9 mps 757 mmHg 84%
    01:00 +7°C° 0.1 mm 9 mps 757 mmHg 82%
    02:00 +7°C° 0.1 mm 10 mps 756 mmHg 80%
    03:00 +7°C° 0.1 mm 10 mps 756 mmHg 78%
    04:00 +7°C° 0.4 mm 10 mps 756 mmHg 80%
    05:00 +8°C° 0.4 mm 10 mps 755 mmHg 82%
    06:00 +9°C° 0.4 mm 11 mps 755 mmHg 84%
    07:00 +9°C° 0.1 mm 11 mps 755 mmHg 81%
    08:00 +8°C° 0.1 mm 11 mps 756 mmHg 78%
    09:00 +8°C° 0.1 mm 11 mps 756 mmHg 74%
    10:00 +8°C° 0 mm 11 mps 757 mmHg 72%
    11:00 +9°C° 0 mm 11 mps 758 mmHg 70%
    12:00 +9°C° 0 mm 11 mps 758 mmHg 67%
    13:00 +9°C° 0 mm 10 mps 759 mmHg 69%
    14:00 +8°C° 0 mm 9 mps 760 mmHg 71%
    15:00 +9°C° 0 mm 8 mps 760 mmHg 72%
    16:00 +7°C° 0 mm 8 mps 761 mmHg 74%
    17:00 +7°C° 0 mm 8 mps 761 mmHg 76%
    18:00 +6°C° 0 mm 7 mps 762 mmHg 78%
    19:00 +6°C° 0 mm 7 mps 762 mmHg 79%
    20:00 +6°C° 0 mm 7 mps 763 mmHg 80%
    21:00 +6°C° 0 mm 7 mps 763 mmHg 81%
    22:00 +7°C° 0 mm 6 mps 764 mmHg 82%
    23:00 +5°C° 0 mm 6 mps 764 mmHg 83%

    23 December, Sunday

    Time Temperature Precipitation Wind Pressure Humidity
    00:00 +5°C° 0 mm 6 mps 764 mmHg 84%
    01:00 +5°C° 0 mm 6 mps 765 mmHg 85%
    02:00 +5°C° 0 mm 6 mps 765 mmHg 87%
    03:00 +6°C° 0 mm 5 mps 765 mmHg 88%
    04:00 +6°C° 0 mm 5 mps 765 mmHg 88%
    05:00 +6°C° 0 mm 5 mps 765 mmHg 89%
    06:00 +6°C° 0 mm 5 mps 766 mmHg 89%
    07:00 +6°C° 0 mm 4 mps 766 mmHg 89%
    08:00 +6°C° 0 mm 4 mps 766 mmHg 89%
    09:00 +6°C° 0 mm 4 mps 767 mmHg 89%
    10:00 +6°C° 0 mm 4 mps 766 mmHg 88%
    11:00 +7°C° 0 mm 4 mps 766 mmHg 87%
    12:00 +8°C° 0 mm 4 mps 766 mmHg 86%
    13:00 +7°C° 0.6 mm 5 mps 766 mmHg 88%
    14:00 +7°C° 0.6 mm 5 mps 766 mmHg 90%
    15:00 +7°C° 0.6 mm 5 mps 765 mmHg 92%
    16:00 +7°C° 0.3 mm 6 mps 765 mmHg 91%
    17:00 +7°C° 0.3 mm 6 mps 765 mmHg 91%
    18:00 +6°C° 0.3 mm 7 mps 764 mmHg 90%
    19:00 +8°C° 0.3 mm 7 mps 764 mmHg 90%
    20:00 +9°C° 0.3 mm 7 mps 764 mmHg 90%
    21:00 +9°C° 0.3 mm 7 mps 763 mmHg 90%
    22:00 +10°C° 0 mm 8 mps 763 mmHg 90%
    23:00 +10°C° 0 mm 8 mps 763 mmHg 89%
    Show more